Miscellaneous Local Product
Issued by NWS North Platte, NE

Home | Current Version | Previous Version | Text Only | Print | Product List | Glossary On
Versions: 1 2 3 4 5 6 7 8 9 10 11 12 13 14 15 16 17 18 19 20 21 22 23 24 25 26 27 28 29 30 31 32 33 34 35 36 37 38 39 40 41 42 43 44 45 46 47 48 49 50
000
AXUS43 KLBF 210110
MISLBF


WESTERN AND NORTH CENTRAL NEBRASKA HOURLY WEATHER ROUNDUP
NATIONAL WEATHER SERVICE NORTH PLATTE NE
800 PM CDT WED AUG 20 2014

***STATIONS NOT REPORTING VARIABLES SUCH AS SKY/WEATHER OR
PRESSURE ARE PROVIDED BY THE NEBRASKA DEPARTMENT OF
ROADS...RAWS...AND APRS NETWORKS...AND ARE NOT UNDER
NATIONAL WEATHER SERVICE QUALITY CONTROL***

...OBSERVATIONS IN AND NEAR THE EASTERN PANHANDLE OF NEBRASKA...

CITY           SKY/WX    TMP DP  RH WIND       PRES   REMARKS
PINE RIDGE     PTCLDY    85  59  41 W3        29.75R
CHADRON        CLEAR     88  48  25 W9        29.75R
ALLIANCE       PTCLDY    89  44  20 W12       29.80S
SIDNEY         CLOUDY    81  55  40 E6        29.89R
WHITECLAY        N/A     85  54  33 W5          N/A
RUSHVILLE        N/A     90  47  22 W13         N/A
GORDON           N/A     97  58  26 W6          N/A  HX  96
CRESCENT LAKE    N/A     84  44  24 S9G16       N/A
LISCO            N/A     82  53  36 S9          N/A
$$

...OBSERVATIONS IN NORTH CENTRAL NEBRASKA...

CITY           SKY/WX    TMP DP  RH WIND       PRES   REMARKS
VALENTINE      CLEAR     86  64  47 S14       29.71R
THEDFORD       CLEAR     84  66  53 S6        29.76S
AINSWORTH      CLEAR     82  68  62 S6        29.74S
O`NEILL        CLEAR     85  74  70 S9        29.73R HX  93
ORD            PTCLDY    86  71  60 SE14      29.71S HX  91
BROKEN BOW     CLEAR     84  71  65 SE8       29.73S
BROWNLEE         N/A     93  64  38 S12         N/A  HX  95
SPRINGVIEW       N/A     87  72  60 SE3         N/A  HX  93
ROSE             N/A     88  76  66 E10         N/A  HX  99
NEWPORT          N/A     84  76  78 SE3         N/A  HX  93
SARGENT          N/A     83  73  70 CALM        N/A
COMSTOCK         N/A     89  78  70 SE8         N/A  HX 102
CHAMBERS         N/A     84  72  67 S3G12       N/A
EWING            N/A     83  76  79 MISG        N/A  HX  91
$$

...OBSERVATIONS IN SOUTHWEST NEBRASKA AND FAR NORTHEAST COLORADO...

CITY           SKY/WX    TMP DP  RH WIND       PRES   REMARKS
WRAY           DRIZZLE   83  59  44 NW12      29.85R
IMPERIAL       MOCLDY    85  61  44 NW6       29.79S
OGALLALA       MOCLDY    80  63  56 CALM      29.81R
NORTH PLATTE   CLEAR     84  67  56 CALM      29.74R
MCCOOK         CLOUDY    87  61  41 SW15G22   29.75R
LEXINGTON      CLEAR     86  71  59 SE8       29.73S HX  91
SUTHERLAND       N/A     86  62  44 W5          N/A
BRADY            N/A     86  70  59 CALM        N/A  HX  91
GOTHENBURG       N/A     91  62  38 SE6         N/A  HX  91
CALLAWAY         N/A     88  74  63 SE10        N/A  HX  97
$$

...SOME WEATHER OBSERVATIONS FROM AROUND THE REGION...

CITY           SKY/WX    TMP DP  RH WIND       PRES   REMARKS
DENVER         MOCLDY    75  51  43 S8        29.94R
LARAMIE        MOCLDY    66  44  45 W16       30.10R
CHEYENNE       MOCLDY    72  47  40 W9        30.02R
SCOTTSBLUFF    PTCLDY    86  53  32 W7        29.82R
RAPID CITY     CLEAR     80  56  43 N14       29.76R
PIERRE         CLEAR     83  72  69 E14       29.63S
WINNER         FAIR      85  69  58 SE10      29.68S
SIOUX FALLS    CLOUDY    73  69  87 E8        29.77S
OMAHA          PTCLDY    86  73  65 SE18      29.76F HX  93
GRAND ISLAND   CLEAR     85  72  65 SE13      29.74F HX  91
KANSAS CITY    PTCLDY    83  71  67 S9        29.83S
WICHITA        PTCLDY    88  65  46 S20G30    29.80S HX  90
HAYS           MOCLDY    93  63  36 S20G25    29.74S HX  94
LIBERAL        CLEAR     93  59  31 S24G30    29.81R HX  92
GOODLAND       MOCLDY    82  63  52 NE9       29.79S
$$



USA.gov is the U.S. government's official web portal to all federal, state and local government web resources and services.